Location: Rio Tanui
(39.9167°N, 8.5167°E)
Time: 16:10:16
(UTC+00:00)

Meteor 2-2 Rocket - Pass Details

Date: 18 June 2024
Orbit: 851 x 928 km, 81.3° (Epoch: 18 July)

Event Time Altitude Azimuth Distance (km) Brightness Sun altitude
Rises 03:11:20 0° 348° (NNW) 3,434 7.8 -7.9°
Reaches altitude 10° 03:13:47 10° 346° (NNW) 2,490 7.0 -7.6°
Maximum altitude 03:19:23 71° 264° (W) 898 4.2 -6.7°
Drops below altitude 10° 03:24:57 10° 181° (S) 2,477 6.3 -5.9°
Sets 03:27:23 0° 179° (S) 3,414 7.0 -5.5°
